User: anonymous   Login
Location: Hoyos del Collado
(40.3594°N, 5.2003°W)
Time: 12:29:45
(UTC+00:00)
Language:

Cosmos 1727 Rocket - Orbit

View from above orbital plane
View from above orbital plane
View from above satellite
View from above satellite

Ground track
Ground track

The orbit data is extracted from the following two-line orbital elements,

1 16511U 86008B   24167.94443182  .00000054  00000-0  39687-4 0  9997
2 16511  82.9432 124.4763 0023883 346.5699  72.0125 13.75888519927445
Epoch (UTC): 15 June 2024 22:39:58
Eccentricity: 0.0023883
inclination: 82.9432°
perigee height: 961 km
apogee height: 996 km
right ascension of ascending node: 124.4763°
argument of perigee: 346.5699°
revolutions per day: 13.75888519
mean anomaly at epoch: 72.0125°
orbit number at epoch: 92744

The dashed part of the orbit path shows where the satellite is in the earth's shadow,  

DLR